JAS-1B - Orbit

View from above orbital plane
View from above orbital plane
View from above satellite
View from above satellite

Ground track
Ground track

The orbit data is extracted from the following two-line orbital elements,

1 20480U 90013C   13168.20830853 -.00000005  00000-0  51875-4 0  4558
2 20480 099.0227 195.5387 0541210 101.1444 325.5520 12.83384206 94317
Epoch (UTC): 17 June 2013 04:59:57
Eccentricity: 0.0541210
inclination: 99.0227°
perigee height: 911 km
apogee height: 1745 km
right ascension of ascending node: 195.5387°
argument of perigee: 101.1444°
revolutions per day: 12.83384206
mean anomaly at epoch: 325.5520°
orbit number at epoch: 9431

The dashed part of the orbit path shows where the satellite is in the earth's shadow,  

Developed and maintained by Chris Peat, Heavens-Above GmbH. Please read the updated FAQ before sending e-mail. Imprint. DLR